Wind_Speed
16 16 13 12 14 14 14 7 3 8 15 5 3 3 3 8 8 12 8 5 7 6 6 7 6 5 3 8 4 4 3 3 1 6 3 4 5 4 5 3 2 3 5 3
15 13 11 10 12 12 11 5 8 5 7 2 3 4 10 8 8 11 6 7 6 7 4 3 8 8 6 8 3 3 1 2 2 4 2 6 5 2 2 7 2 7 3 4
17 13 12 10 10 11 7 4 3 3 3 6 4 5 10 6 7 10 12 10 9 5 4 5 4 7 8 9 4 11 4 2 2 2 5 3 3 5 4 5 3 2 6 5
15 15 12 11 9 10 5 2 3 2 3 2 6 8 3 3 3 4 5 3 5 4 4 3 4 7 6 6 10 5 4 1 1 4 6 6 9 11 11 8 9 6 7 10
13 12 12 12 10 12 12 4 2 4 7 12 7 10 10 11 5 3 5 7 4 4 3 2 3 3 4 4 6 4 3 2 4 3 7 8 9 11 12 8 9 9 11 13
18 14 11 12 11 14 13 11 10 5 4 5 3 3 11 10 12 7 7 9 3 5 2 4 7 7 6 4 2 3 2 2 3 3 7 9 5 4 7 4 5 3 4 5
11 11 13 13 10 16 19 15 10 5 4 2 4 10 11 11 11 5 10 10 3 3 6 9 7 7 9 7 7 8 3 4 3 3 4 3 6 12 11 5 7 5 13 8
13 14 14 13 12 13 20 21 12 6 3 6 7 8 4 10 11 4 4 8 5 7 6 3 3 3 3 4 6 7 6 4 1 2 3 6 10 4 5 8 11 4 9 5
15 15 14 14 12 11 14 16 20 10 2 5 13 4 5 1 3 6 6 12 9 6 3 3 2 1 1 3 5 4 5 3 3 1 3 5 5 4 15 9 6 9 7 21
17 16 15 14 12 11 15 18 22 20 5 12 11 2 1 2 3 2 4 11 8 9 2 0 2 2 2 2 1 1 2 1 7 5 5 6 4 9 13 1 4 12 16 8
17 17 16 16 15 14 14 21 17 25 11 15 4 4 14 7 4 1 5 3 4 2 2 0 2 2 2 2 3 2 4 4 3 2 5 8 11 7 3 3 18 16 20 18
18 19 18 18 18 16 16 22 21 16 17 7 4 20 22 17 11 8 1 3 2 4 3 1 2 2 3 2 2 4 2 3 2 4 3 9 16 17 17 18 17 16 20 16
19 20 19 19 20 19 19 24 18 24 17 18 23 24 20 14 21 17 6 4 4 3 7 3 2 3 2 2 2 2 3 3 3 4 8 10 11 16 21 19 20 16 15 14
20 21 19 19 20 20 21 26 25 22 6 5 8 9 11 19 27 22 18 15 7 5 3 2 2 2 2 2 3 1 3 9 6 3 5 5 15 14 13 16 14 14 13 12
19 19 16 16 16 15 20 24 28 24 19 3 5 12 18 12 10 17 26 26 19 10 3 2 2 3 3 2 1 3 7 4 4 3 8 7 7 11 8 10 10 10 7 8
10 13 14 13 11 14 20 6 17 16 19 3 2 5 5 4 16 14 19 20 14 6 4 3 4 4 2 1 2 4 10 12 12 3 15 15 12 10 10 8 8 7 6 6
13 11 11 13 14 11 16 5 4 24 21 3 3 5 0 3 10 12 15 18 12 9 4 4 4 4 4 1 2 6 7 9 12 9 7 6 10 6 7 7 6 7 8 8
18 16 13 11 12 14 11 3 2 23 17 4 2 3 4 7 5 5 7 9 10 4 4 3 3 2 3 2 6 7 7 4 9 10 8 7 5 3 4 5 5 7 6 6
18 16 16 22 21 15 9 6 8 23 5 5 3 2 3 2 4 4 5 6 1 3 2 3 3 1 1 3 6 6 7 6 6 4 2 0 1 3 5 5 5 4 2 3
23 19 11 5 16 15 21 13 11 9 4 5 4 6 2 8 4 2 5 3 3 3 5 6 2 2 9 8 5 2 3 5 5 3 2 2 1 3 5 5 4 2 1 3
29 13 6 19 37 19 6 6 5 7 3 6 7 17 4 7 3 2 5 3 3 3 3 3 2 2 4 5 4 3 2 2 4 2 0 2 2 1 1 2 2 2 3 4
27 18 34 17 7 5 4 4 5 4 5 7 5 7 6 6 6 3 4 3 3 3 4 3 2 2 7 3 3 4 3 4 2 4 5 3 3 2 1 2 3 3 4 4
35 17 7 6 4 3 6 7 3 4 5 8 7 3 4 3 3 3 2 3 3 3 3 2 2 9 6 4 2 2 2 3 3 4 5 5 5 5 6 7 8 7 7 6
6 5 4 2 1 2 4 3 3 4 6 16 16 5 3 2 2 0 3 0 3 2 0 4 2 9 8 5 4 4 7 8 8 9 8 8 8 9 9 8 8 7 8 7
6 4 3 1 2 2 2 8 8 5 15 16 10 5 3 2 3 2 2 3 1 3 3 2 10 10 7 6 6 6 7 7 8 8 8 9 9 9 10 9 8 7 7 6
5 6 3 4 6 3 5 7 6 7 17 9 4 3 3 2 3 3 2 1 3 2 2 12 12 9 7 6 6 6 7 7 7 7 7 7 7 7 7 7 5 4 3 3
4 4 11 10 9 6 4 3 3 6 5 2 3 4 3 2 3 1 0 3 3 7 14 12 8 8 9 8 8 7 7 7 7 8 8 7 6 5 4 3 3 3 3 4
Wind_Direction
304 307 310 323 325 321 324 319 292 284 312 267 215 225 256 328 312 318 319 286 344 359 334 2 48 102 87 2 52 53 32 103 222 250 284 207 161 152 159 187 216 244 288 275
297 296 311 317 321 319 320 296 280 270 289 285 231 271 270 280 295 292 304 312 338 320 340 39 40 35 1 45 61 93 119 25 353 3 18 28 52 11 11 310 252 234 257 278
286 289 302 302 314 313 309 309 307 323 335 316 349 287 274 244 265 254 267 265 287 294 12 19 32 22 14 29 53 63 59 96 111 187 242 202 273 243 242 262 255 322 251 282
280 283 290 288 302 299 261 264 266 324 319 326 301 273 302 336 326 29 329 35 29 4 22 17 61 2 346 36 15 56 76 92 184 278 281 272 270 267 266 223 238 262 277 284
270 275 276 282 292 285 223 216 241 332 300 310 344 326 11 9 351 301 336 339 354 27 57 47 13 20 19 22 360 55 10 348 25 298 276 271 275 283 257 258 242 252 284 275
270 267 267 281 272 274 217 223 233 293 292 321 339 308 359 341 340 359 359 332 23 20 115 218 265 269 251 256 342 340 38 94 38 273 332 317 294 233 315 200 177 218 280 276
253 255 268 274 260 261 277 218 185 183 274 252 294 314 324 320 330 302 297 334 323 333 317 300 273 264 254 227 236 209 179 143 169 241 315 270 252 325 316 251 209 242 262 265
243 262 269 265 254 254 265 241 193 189 251 264 276 278 319 323 327 330 299 342 338 334 338 9 11 353 350 281 234 205 189 140 229 214 204 299 305 341 22 345 290 281 294 216
247 261 266 259 250 250 258 262 218 209 222 241 248 289 295 302 318 351 1 354 356 357 57 38 71 286 276 319 328 49 93 100 152 151 244 251 237 318 359 334 290 344 287 152
252 260 260 253 244 236 243 245 230 212 243 250 255 259 330 10 19 331 318 342 353 14 39 99 177 270 274 267 276 263 76 135 219 230 250 276 267 318 325 171 306 35 51 82
256 259 255 246 243 233 236 234 240 223 216 247 212 241 234 247 196 160 318 4 352 324 21 267 253 188 264 297 251 198 185 178 211 197 220 259 355 345 298 97 52 65 74 78
258 257 254 246 240 241 233 232 236 241 221 257 276 247 244 235 231 283 288 136 309 349 330 15 290 331 350 352 278 16 325 210 271 229 220 70 62 75 71 78 64 48 78 80
254 251 248 238 239 241 237 238 216 206 226 255 255 250 251 243 243 244 223 207 211 151 0 278 310 262 269 289 278 337 280 13 264 224 113 86 72 69 80 79 75 68 61 85
254 251 237 230 237 232 228 227 218 214 184 224 266 262 247 239 233 228 232 225 254 242 318 271 297 281 229 266 299 295 358 299 320 35 47 53 42 55 77 82 72 67 59 68
254 238 221 224 230 223 214 224 222 220 203 214 276 280 265 243 231 229 228 234 238 225 230 197 244 254 286 296 136 35 353 347 337 3 331 82 20 41 60 77 63 58 43 43
204 192 200 208 207 203 201 168 222 223 215 227 314 284 285 228 209 218 207 201 201 212 210 230 263 260 268 267 70 40 25 19 4 42 79 84 71 67 56 56 48 38 31 43
188 190 189 199 210 214 168 191 203 192 208 161 291 296 275 232 202 208 212 210 216 221 207 213 243 276 218 241 105 46 26 28 30 47 318 48 56 79 49 36 29 18 17 14
195 201 202 210 199 205 155 162 207 175 177 189 233 267 337 163 138 127 143 165 194 249 208 226 225 266 24 100 77 50 25 4 25 33 45 86 102 83 39 3 345 351 5 10
203 197 195 180 182 170 132 155 166 161 178 176 201 205 240 130 94 119 139 152 117 212 214 237 167 75 72 82 79 47 19 1 338 330 8 3 34 17 8 355 7 20 40 12
195 190 170 175 157 172 127 136 160 182 232 224 199 204 236 176 146 132 122 176 193 205 223 154 83 86 104 98 97 62 350 335 332 238 347 9 357 347 347 0 5 353 65 71
198 172 126 148 148 151 172 138 163 184 221 211 214 200 158 200 143 158 178 172 177 216 216 212 135 134 122 139 104 90 107 78 56 65 284 278 200 163 356 9 37 108 129 124
173 154 138 135 136 145 158 172 166 198 217 190 178 170 163 167 142 146 184 194 179 229 131 102 151 118 136 120 36 4 360 4 30 102 95 131 163 164 191 161 160 159 149 136
125 126 149 159 169 153 161 163 177 195 192 185 153 117 137 150 180 133 143 179 228 96 50 149 186 133 141 137 66 48 33 30 55 84 85 87 104 111 113 122 120 125 129 123
97 121 110 184 218 242 185 152 134 147 171 148 139 121 140 141 67 64 140 180 57 70 120 221 147 150 148 125 98 90 84 77 80 82 84 91 102 109 111 113 115 123 122 116
83 82 109 147 175 112 149 130 120 127 148 133 119 96 109 23 91 40 107 52 242 209 215 200 151 148 140 120 104 89 88 89 89 88 95 98 101 107 106 104 109 112 108 108
70 48 88 86 84 36 72 104 107 120 139 116 113 125 72 17 107 60 186 127 224 222 178 140 144 139 130 128 118 106 98 94 94 94 94 99 103 108 113 115 113 106 84 44
57 52 75 86 79 71 71 87 94 128 111 107 95 72 186 104 73 123 104 193 216 141 134 134 139 139 135 127 113 100 96 101 105 108 108 110 111 110 111 116 110 95 68 31
Height
1483 1482 1480 1479 1478 1476 1474 1473 1472 1464 1463 1461 1460 1460 1451 1447 1442 1441 1440 1435 1424 1420 1415 1410 1407 1416 1412 1412 1411 1417 1420 1426 1431 1426 1418 1419 1423 1431 1437 1439 1433 1428 1425 1409
1479 1479 1478 1478 1477 1475 1475 1473 1469 1463 1462 1456 1461 1454 1451 1449 1445 1442 1440 1436 1433 1424 1422 1420 1415 1415 1413 1414 1416 1420 1422 1431 1434 1426 1425 1425 1432 1432 1433 1434 1434 1426 1427 1410
1475 1476 1475 1475 1475 1474 1475 1474 1470 1463 1460 1460 1459 1456 1449 1445 1441 1440 1438 1434 1431 1428 1423 1422 1422 1421 1419 1419 1419 1421 1421 1431 1434 1444 1440 1435 1433 1429 1430 1430 1429 1421 1417 1406
1471 1472 1472 1472 1473 1473 1474 1473 1472 1468 1465 1460 1458 1456 1450 1445 1443 1440 1438 1432 1433 1434 1432 1429 1433 1430 1425 1422 1422 1423 1428 1434 1434 1434 1432 1430 1428 1425 1423 1427 1425 1422 1412 1410
1467 1468 1468 1469 1470 1470 1471 1472 1471 1468 1465 1460 1459 1455 1450 1447 1445 1440 1438 1438 1435 1434 1434 1434 1436 1438 1434 1432 1429 1429 1432 1436 1439 1436 1429 1426 1424 1419 1415 1413 1416 1419 1415 1407
1463 1463 1464 1465 1466 1467 1465 1466 1468 1470 1465 1461 1461 1459 1457 1454 1449 1443 1442 1439 1436 1436 1437 1437 1435 1435 1435 1435 1436 1435 1436 1439 1443 1438 1434 1430 1427 1415 1413 1408 1411 1413 1413 1407
1457 1459 1460 1461 1462 1462 1463 1462 1465 1468 1466 1463 1459 1458 1457 1454 1450 1448 1442 1440 1439 1439 1436 1435 1433 1431 1431 1434 1432 1433 1436 1440 1444 1443 1436 1439 1414 1407 1404 1403 1401 1405 1403 1403
1453 1454 1455 1456 1457 1459 1458 1458 1462 1464 1465 1461 1458 1456 1456 1454 1450 1447 1444 1442 1441 1438 1436 1435 1434 1435 1431 1428 1427 1429 1432 1438 1445 1444 1436 1425 1416 1406 1409 1408 1405 1401 1402 1401
1448 1449 1450 1451 1452 1454 1454 1455 1459 1462 1462 1458 1455 1455 1454 1454 1452 1448 1446 1443 1441 1440 1440 1442 1441 1438 1432 1430 1426 1427 1432 1435 1442 1448 1440 1441 1413 1405 1405 1402 1405 1401 1392 1394
1442 1444 1445 1446 1448 1450 1451 1451 1454 1458 1459 1455 1455 1456 1455 1454 1453 1454 1451 1448 1444 1443 1445 1446 1445 1441 1434 1434 1430 1428 1439 1439 1438 1440 1437 1426 1411 1409 1405 1412 1415 1406 1403 1402
1436 1438 1440 1442 1444 1446 1447 1447 1450 1453 1453 1451 1452 1452 1453 1454 1454 1455 1453 1452 1450 1447 1448 1450 1445 1447 1437 1436 1430 1427 1434 1439 1441 1437 1434 1426 1411 1409 1409 1416 1414 1414 1412 1413
1430 1432 1434 1436 1438 1441 1443 1443 1445 1448 1449 1449 1447 1447 1449 1452 1451 1454 1453 1455 1455 1454 1450 1449 1446 1446 1447 1441 1439 1429 1440 1432 1429 1428 1422 1419 1416 1417 1417 1415 1418 1421 1418 1421
1424 1425 1427 1429 1432 1435 1437 1438 1440 1444 1447 1445 1444 1441 1445 1445 1447 1450 1453 1453 1453 1454 1456 1453 1448 1444 1441 1444 1438 1433 1432 1431 1427 1418 1420 1422 1423 1421 1418 1418 1420 1423 1427 1425
1416 1418 1420 1423 1426 1428 1431 1431 1435 1441 1444 1444 1437 1436 1435 1437 1442 1444 1447 1449 1452 1453 1454 1453 1450 1447 1442 1441 1438 1436 1437 1433 1426 1424 1426 1426 1425 1425 1424 1424 1426 1426 1430 1431
1408 1410 1414 1417 1420 1422 1425 1428 1430 1435 1441 1439 1435 1434 1433 1434 1436 1437 1441 1447 1450 1452 1452 1450 1449 1445 1442 1439 1437 1443 1443 1442 1436 1431 1431 1428 1433 1430 1428 1426 1427 1428 1432 1432
1405 1407 1411 1415 1416 1419 1422 1426 1428 1431 1434 1439 1438 1432 1429 1429 1432 1436 1438 1443 1447 1448 1448 1448 1445 1442 1443 1444 1439 1447 1445 1444 1440 1438 1437 1434 1434 1434 1432 1431 1432 1432 1433 1433
1404 1407 1410 1412 1414 1417 1420 1423 1423 1426 1432 1436 1436 1431 1428 1429 1431 1435 1438 1441 1444 1446 1445 1445 1445 1442 1440 1439 1441 1449 1448 1445 1443 1441 1440 1438 1438 1439 1438 1436 1435 1434 1432 1433
1401 1405 1409 1411 1414 1417 1420 1421 1421 1424 1431 1435 1435 1431 1429 1429 1429 1433 1435 1439 1442 1443 1442 1442 1440 1439 1439 1442 1449 1449 1448 1447 1445 1443 1442 1441 1441 1440 1439 1437 1437 1435 1434 1435
1398 1403 1407 1408 1410 1414 1418 1421 1423 1427 1433 1431 1431 1430 1432 1427 1428 1431 1434 1437 1442 1441 1440 1438 1438 1440 1445 1449 1449 1449 1449 1449 1448 1446 1445 1443 1442 1441 1440 1438 1437 1437 1438 1437
1395 1399 1400 1402 1406 1412 1418 1423 1426 1429 1428 1427 1426 1426 1426 1427 1427 1431 1434 1435 1438 1437 1434 1435 1439 1447 1450 1450 1451 1451 1450 1449 1447 1446 1446 1444 1443 1442 1441 1439 1439 1439 1439 1438
1385 1390 1395 1402 1406 1413 1417 1420 1423 1425 1424 1421 1419 1419 1421 1424 1425 1428 1429 1431 1431 1430 1431 1429 1438 1445 1450 1451 1452 1452 1452 1451 1448 1447 1445 1444 1443 1443 1442 1440 1440 1441 1440 1441
1375 1382 1392 1401 1406 1409 1413 1415 1417 1417 1415 1414 1414 1416 1418 1420 1421 1424 1427 1426 1427 1426 1427 1432 1446 1446 1448 1448 1449 1449 1448 1446 1446 1446 1445 1444 1443 1443 1442 1442 1442 1442 1443 1443
1373 1383 1393 1396 1401 1402 1409 1406 1407 1409 1407 1408 1409 1413 1416 1419 1418 1421 1423 1423 1427 1425 1433 1443 1446 1446 1448 1449 1448 1447 1446 1446 1445 1444 1444 1443 1443 1444 1444 1444 1444 1445 1445 1446
1373 1382 1392 1392 1404 1400 1399 1400 1399 1402 1403 1405 1408 1414 1415 1417 1418 1419 1419 1423 1425 1433 1444 1443 1445 1446 1448 1449 1449 1448 1447 1447 1446 1446 1446 1446 1446 1446 1446 1447 1447 1448 1448 1449
1377 1383 1395 1397 1395 1395 1397 1397 1399 1401 1403 1405 1410 1413 1415 1418 1420 1422 1425 1429 1438 1436 1440 1443 1443 1446 1447 1448 1448 1449 1448 1448 1448 1448 1448 1448 1449 1449 1449 1450 1450 1451 1451 1451
1383 1388 1391 1393 1394 1397 1397 1398 1399 1401 1403 1406 1409 1413 1418 1422 1423 1426 1435 1429 1431 1439 1439 1441 1443 1445 1447 1448 1449 1449 1450 1450 1450 1451 1451 1451 1452 1452 1452 1452 1453 1453 1453 1453
1388 1394 1394 1395 1397 1399 1399 1399 1400 1401 1403 1408 1410 1418 1421 1421 1429 1434 1437 1441 1440 1438 1440 1443 1445 1446 1448 1449 1450 1451 1452 1453 1453 1454 1454 1455 1455 1455 1455 1455 1455 1455 1455 1454